TimeCST,TemperatureF,Dew PointF,Humidity,Sea Level PressureIn,VisibilityMPH,Wind Direction,Wind SpeedMPH,Gust SpeedMPH,PrecipitationIn,Events,Conditions,WindDirDegrees,DateUTC
12:15 AM,26.6,24.8,93,29.63,10.0,SW,10.4,-,N/A,,Partly Cloudy,230,2013-01-19 06:15:00
12:35 AM,26.6,24.8,93,29.62,10.0,SW,12.7,-,N/A,,Partly Cloudy,230,2013-01-19 06:35:00
12:55 AM,24.8,23.0,93,29.62,10.0,WSW,12.7,-,N/A,,Clear,250,2013-01-19 06:55:00
1:15 AM,26.6,24.8,93,29.62,10.0,West,13.8,-,N/A,,Clear,260,2013-01-19 07:15:00
1:35 AM,28.4,24.8,86,29.63,10.0,West,16.1,-,N/A,,Clear,280,2013-01-19 07:35:00
1:55 AM,26.6,24.8,93,29.63,10.0,WNW,15.0,-,N/A,,Clear,290,2013-01-19 07:55:00
2:15 AM,28.4,24.8,86,29.64,10.0,WNW,17.3,-,N/A,,Clear,290,2013-01-19 08:15:00
2:35 AM,30.2,26.6,86,29.65,10.0,WNW,18.4,-,N/A,,Clear,290,2013-01-19 08:35:00
2:55 AM,32.0,26.6,80,29.65,10.0,West,18.4,-,N/A,,Partly Cloudy,280,2013-01-19 08:55:00
3:15 AM,32.0,28.4,87,29.67,10.0,West,16.1,-,N/A,,Scattered Clouds,280,2013-01-19 09:15:00
3:35 AM,32.0,28.4,87,29.68,10.0,West,18.4,-,N/A,,Scattered Clouds,280,2013-01-19 09:35:00
3:55 AM,32.0,28.4,87,29.69,10.0,WNW,18.4,-,N/A,,Scattered Clouds,290,2013-01-19 09:55:00
4:15 AM,33.8,28.4,81,29.68,10.0,WNW,21.9,26.5,N/A,,Mostly Cloudy,300,2013-01-19 10:15:00
4:35 AM,32.0,28.4,87,29.69,10.0,WNW,21.9,27.6,N/A,,Partly Cloudy,300,2013-01-19 10:35:00
4:55 AM,32.0,28.4,87,29.69,10.0,WNW,25.3,32.2,N/A,,Mostly Cloudy,300,2013-01-19 10:55:00
5:15 AM,32.0,28.4,87,29.69,10.0,WNW,28.8,34.5,N/A,,Overcast,300,2013-01-19 11:15:00
5:35 AM,30.2,26.6,86,29.72,10.0,NW,24.2,36.8,N/A,,Overcast,310,2013-01-19 11:35:00
5:55 AM,26.6,23.0,86,29.74,10.0,NNW,24.2,28.8,N/A,,Overcast,340,2013-01-19 11:55:00
7:15 AM,14.0,8.6,79,29.84,5.0,NNW,29.9,35.7,N/A,,Overcast,340,2013-01-19 13:15:00
8:15 AM,8.6,3.2,79,29.89,1.8,NNW,29.9,40.3,N/A,Rain,Freezing Rain,330,2013-01-19 14:15:00
8:35 AM,6.8,1.4,79,29.92,2.5,NW,32.2,38.0,N/A,,Overcast,320,2013-01-19 14:35:00
9:35 AM,5.0,-0.4,78,29.99,2.0,NW,29.9,36.8,N/A,Snow,Light Snow,320,2013-01-19 15:35:00
9:55 AM,5.0,-0.4,78,30.00,0.8,NW,36.8,43.7,N/A,Rain,Freezing Rain,310,2013-01-19 15:55:00
10:15 AM,3.2,-0.4,85,30.02,0.8,NW,36.8,47.2,N/A,Rain,Freezing Rain,310,2013-01-19 16:15:00
10:35 AM,1.4,-0.4,92,30.05,0.5,NNW,39.1,46.0,0.01,Rain,Freezing Rain,330,2013-01-19 16:35:00
10:55 AM,1.4,-2.2,85,30.07,1.0,NW,29.9,46.0,0.01,Rain,Freezing Rain,320,2013-01-19 16:55:00
11:15 AM,1.4,-4.0,78,30.09,1.2,NW,33.4,41.4,N/A,,Haze,320,2013-01-19 17:15:00
11:35 AM,-0.4,-4.0,85,30.10,1.0,NW,36.8,46.0,N/A,Rain,Freezing Rain,320,2013-01-19 17:35:00
11:55 AM,-0.4,-4.0,85,30.11,0.8,NW,34.5,44.9,N/A,Rain,Freezing Rain,320,2013-01-19 17:55:00
12:15 PM,-0.4,-5.8,78,30.13,1.0,NW,31.1,42.6,N/A,Rain,Freezing Rain,320,2013-01-19 18:15:00
12:35 PM,-0.4,-5.8,78,30.14,1.8,NW,31.1,39.1,N/A,,Haze,320,2013-01-19 18:35:00
12:55 PM,-0.4,-7.6,72,30.16,4.0,NW,29.9,36.8,N/A,,Haze,320,2013-01-19 18:55:00
1:35 PM,-0.4,-7.6,72,30.17,10.0,NW,32.2,36.8,N/A,,Partly Cloudy,320,2013-01-19 19:35:00
1:55 PM,-0.4,-7.6,72,30.20,10.0,NW,28.8,34.5,N/A,,Clear,320,2013-01-19 19:55:00
2:15 PM,-0.4,-7.6,72,30.21,10.0,NW,27.6,32.2,N/A,,Clear,320,2013-01-19 20:15:00
2:35 PM,-0.4,-7.6,72,30.22,10.0,NNW,24.2,32.2,N/A,,Clear,330,2013-01-19 20:35:00
2:55 PM,-0.4,-9.4,66,30.24,10.0,NW,26.5,32.2,N/A,,Clear,320,2013-01-19 20:55:00
3:15 PM,-2.2,-9.4,71,30.25,10.0,NW,26.5,34.5,N/A,,Clear,320,2013-01-19 21:15:00
3:35 PM,-2.2,-9.4,71,30.27,10.0,NW,27.6,32.2,N/A,,Clear,310,2013-01-19 21:35:00
3:55 PM,-2.2,-9.4,71,30.28,10.0,NW,24.2,28.8,N/A,,Clear,310,2013-01-19 21:55:00
4:15 PM,-2.2,-9.4,71,30.29,10.0,NW,23.0,27.6,N/A,,Clear,320,2013-01-19 22:15:00
4:35 PM,-2.2,-11.2,66,30.29,10.0,NW,20.7,28.8,N/A,,Clear,320,2013-01-19 22:35:00
4:55 PM,-4.0,-11.2,71,30.30,10.0,NW,19.6,-,N/A,,Clear,320,2013-01-19 22:55:00
5:15 PM,-4.0,-11.2,71,30.29,10.0,NNW,19.6,27.6,N/A,,Clear,330,2013-01-19 23:15:00
5:35 PM,-4.0,-11.2,71,30.29,10.0,NW,16.1,-,N/A,,Clear,320,2013-01-19 23:35:00
5:55 PM,-5.8,-9999,N/A,30.29,10.0,NW,15.0,-,N/A,,Clear,320,2013-01-19 23:55:00
6:15 PM,-7.6,-13.0,77,30.31,10.0,NW,13.8,-,N/A,,Clear,310,2013-01-20 00:15:00
6:35 PM,-7.6,-13.0,77,30.31,10.0,WNW,11.5,-,N/A,,Clear,300,2013-01-20 00:35:00
6:55 PM,-7.6,-13.0,77,30.30,10.0,NW,12.7,-,N/A,,Clear,310,2013-01-20 00:55:00
7:15 PM,-9.4,-14.8,77,30.31,10.0,WNW,13.8,-,N/A,,Clear,290,2013-01-20 01:15:00
7:35 PM,-9.4,-14.8,77,30.32,10.0,WNW,11.5,-,N/A,,Clear,290,2013-01-20 01:35:00
7:55 PM,-9.4,-14.8,77,30.32,10.0,WNW,10.4,-,N/A,,Clear,300,2013-01-20 01:55:00
8:15 PM,-9.4,-14.8,77,30.32,10.0,WNW,10.4,-,N/A,,Clear,300,2013-01-20 02:15:00
8:35 PM,-9.4,-14.8,77,30.31,10.0,WNW,10.4,-,N/A,,Clear,290,2013-01-20 02:35:00
8:55 PM,-9.4,-14.8,77,30.32,10.0,WNW,10.4,-,N/A,,Clear,290,2013-01-20 02:55:00
9:15 PM,-9.4,-13.0,84,30.32,10.0,West,11.5,-,N/A,,Clear,270,2013-01-20 03:15:00
9:35 PM,-9.4,-13.0,84,30.32,10.0,West,11.5,-,N/A,,Clear,270,2013-01-20 03:35:00
9:55 PM,-9.4,-13.0,84,30.31,10.0,West,9.2,-,N/A,,Clear,280,2013-01-20 03:55:00
10:15 PM,-9.4,-13.0,84,30.31,10.0,West,9.2,-,N/A,,Clear,280,2013-01-20 04:15:00
10:35 PM,-9.4,-13.0,84,30.30,10.0,West,6.9,-,N/A,,Clear,280,2013-01-20 04:35:00
10:55 PM,-7.6,-13.0,77,30.30,10.0,WNW,8.1,-,N/A,,Clear,290,2013-01-20 04:55:00
11:15 PM,-7.6,-13.0,77,30.30,10.0,WNW,8.1,-,N/A,,Clear,290,2013-01-20 05:15:00
11:35 PM,-7.6,-13.0,77,30.29,10.0,WNW,8.1,-,N/A,,Clear,300,2013-01-20 05:35:00
11:55 PM,-7.6,-13.0,77,30.29,10.0,WNW,8.1,-,N/A,,Clear,290,2013-01-20 05:55:00